Location: Betra
(48.4113°N, 8.6634°E)
Time: 18:43:10
(UTC+00:00)

GP-B - Pass Details

Date: 23 May 2024
Orbit: 624 x 628 km, 89.8° (Epoch: 23 June)

Event Time Altitude Azimuth Distance (km) Brightness Sun altitude
Rises 00:27:53 0° 352° (N) 2,926 7.7 -19.4°
Reaches altitude 10° 00:30:20 10° 341° (NNW) 2,013 6.4 -19.3°
Maximum altitude 00:34:06 28° 282° (WNW) 1,178 4.4 -19.1°
Enters shadow 00:35:19 25° 254° (WSW) 1,286 4.4 -19.0°
